Regional Weather Roundup
Issued by NWS Upton, NY

Current Version | Previous Version | Text Only | Print | Product List | Glossary On
Versions: 1 2 3 4 5 6 7 8 9 10 11 12 13 14 15 16 17 18 19 20 21 22 23 24 25 26 27 28 29 30 31 32 33 34 35 36 37 38 39 40 41 42 43 44 45 46 47 48 49 50
732 ASUS41 KOKX 170408 RWROKX REGIONAL WEATHER ROUNDUP NATIONAL WEATHER SERVICE NEW YORK NY 1100 PM EST MON JAN 16 2017 NOTE: "FAIR" INDICATES FEW OR NO CLOUDS BELOW 12,000 FEET WITH NO SIGNIFICANT WEATHER AND/OR OBSTRUCTIONS TO VISIBILITY. NYZ071-072-176-178-NJZ106-104-170500- NEW YORK CITY METRO AREA CITY SKY/WX TMP DP RH WIND PRES REMARKS Central Park CLOUDY 41 24 51 VRB6 30.33F Wall St Helipt CLOUDY 40 27 59 W7 30.33F Bronx Bot Gard NOT AVBL LaGuardia APRT CLOUDY 43 24 47 SW7 30.31F Kennedy INTL CLOUDY 40 27 59 SW8 30.33F WCI 34 Breezy Point N/A 39 N/A N/A SW6 N/A WCI 35 Newark/Liberty CLOUDY 40 24 53 SW8 30.32S WCI 34 Teterboro CLOUDY 40 26 57 S6 30.30F $$ NYZ177-179-078>081-170500- LONG ISLAND NEW YORK CITY SKY/WX TMP DP RH WIND PRES REMARKS Jones Beach N/A 39 N/A N/A SW8 N/A WCI 34 Matinecock PT N/A 41 N/A N/A SW9 N/A Farmingdale CLOUDY 40 28 62 SW8 30.30F WCI 34 MacArthur/ISP CLOUDY 38 29 70 SW6 30.30F WCI 33 Shirley CLOUDY 38 29 70 SW6 30.31F WCI 33 Westhampton CLOUDY 38 30 73 W7 30.32F WCI 33 Southampton NOT AVBL Bridgehampton NOT AVBL East Hampton CLOUDY 37 29 73 W3 30.29F Montauk N/A 39 30 70 SW7 30.29F WCI 34 $$ NYZ052-065-067-170500- HUDSON VALLEY CITY SKY/WX TMP DP RH WIND PRES REMARKS White Plains MOCLDY 38 24 57 W5 30.27F WCI 34 Newburgh MOCLDY 36 27 69 W6 30.28F WCI 31 Montgomery CLOUDY 36 25 64 SW6 30.26F WCI 31 Poughkeepsie CLOUDY 37 24 59 SW7 30.27F WCI 32 Albany MOCLDY 26 19 74 CALM 30.26F $$ NJZ001-105-106-008-010-013-015-019>022-104-170500- NEW JERSEY CITY SKY/WX TMP DP RH WIND PRES REMARKS Newark/Liberty CLOUDY 40 24 53 SW8 30.32S WCI 34 Teterboro CLOUDY 40 26 57 S6 30.30F Caldwell CLOUDY 38 24 57 SW3 30.31F Somerville CLOUDY 37 26 64 CALM 30.30F Linden CLOUDY 39 24 54 CALM 30.33S Sussex CLOUDY 36 27 69 SW5 30.27F WCI 32 Andover N/A 35 26 69 SW5 30.28F WCI 31 Trenton CLOUDY 39 25 57 W3 30.32F Millville CLOUDY 38 27 64 CALM 30.34F Atlantic City CLOUDY 39 21 48 CALM 30.34S Wrightstown CLOUDY 38 25 59 SW3 30.30F Toms River CLOUDY 37 27 67 CALM 30.34F Belmar CLOUDY 37 24 59 S6 30.32F WCI 32 $$ PAZ047>061-062-071-170500- EASTERN PENNSYLVANIA CITY SKY/WX TMP DP RH WIND PRES REMARKS Philadelphia CLOUDY 38 28 67 W6 30.34F WCI 33 Allentown CLOUDY 37 25 61 SW5 30.31S WCI 33 Scranton CLOUDY 35 27 72 SW5 30.26F WCI 31 $$ CTZ002-004>006-009-010-012-RIZ004-006-007-MAZ004-011-015-170500- SOUTHERN NEW ENGLAND IN CT CITY SKY/WX TMP DP RH WIND PRES REMARKS Bradley INTL CLOUDY 32 23 69 S6 30.26F WCI 26 Hartford PTCLDY 33 24 69 S6 30.28F WCI 28 Danbury CLOUDY 36 24 62 W5 30.28F WCI 32 Wtrbury/Oxford CLOUDY 34 21 60 CALM 30.27F Bridgeport CLOUDY 38 31 76 CALM 30.29F Meriden PTCLDY 34 27 75 CALM 30.28F New Haven CLOUDY 37 31 78 SW5 30.29F WCI 33 Chester CLOUDY 36 28 75 SW10G16 30.26F WCI 28 Groton CLOUDY 39 31 72 W8 30.28F WCI 33 Wilimantic CLOUDY 30 24 78 CALM 30.27F IN RI CITY SKY/WX TMP DP RH WIND PRES REMARKS Providence CLOUDY 34 24 67 SW6 30.27F WCI 29 Block Island NOT AVBL Westerly MOCLDY 39 30 70 W6 30.28F WCI 35 IN MA CITY SKY/WX TMP DP RH WIND PRES REMARKS Boston MOCLDY 36 20 52 SW16 30.22F WCI 26 Worcester CLOUDY 32 16 51 W17 30.18F WCI 21 Westfield PTCLDY 31 22 69 S3 30.24F Provincetown PTCLDY 36 26 67 SW17 30.23F WCI 26 Nantucket CLEAR 39 31 72 W16 30.27F WCI 30 $$ ANZ330-335-338-340-345-350-353-355-170500- COASTAL MARINE OBSERVATIONS STATION/POSITION TIME SKY/WX TEMP WIND PRES VSBY WAVE AIR SEA DIR/SP/G HT/PER (UTC) (F) (DEG/KT/KT) (MB) (MI) (FT/S) NY HARB ENTRANCE 0250 41 44 240/ 10/ 12 1027.2 2/ 4 20 S FIRE ISLAND 0250 42 45 250/ 12/ 14 1027.0 2/ 3 GREAT SOUTH BAY NOT AVBL 23 SSW MONTAUK P 0250 43 48 250/ 17/ 19 1026.9 3/ 4 15 E BARNEGAT LI 0330 45 N/A 2/10 HUDSON CANYON 0250 46 53 1027.6 2/10 KINGS POINT 0324 41 38 1026.3 EXECUTION ROCKS 0345 40 230/ 8/ 8 N/A CENTRAL LI SOUND 0315 40 240/ 16/ 17 N/A 2/ 4 EASTERN LI SOUND NOT AVBL ROBBINS REEF 0324 40 220/ 6/ 7 1026.9 $$ >>>>>>>>>>>>>>>>>>>>>>>>>>>> KEY <<<<<<<<<<<<<<<<<<<<<<<<<<< > < > SKY/WX - Sky Condition/Present Weather < > TMP - Temperature in Fahrenheit < > DP - Dew Point in Fahrenheit < > RH - Relative Humidity in Percent < > WIND - Direction (from) and Speed in MPH < > PRES - Mean Sea Level Pressure (inches of Hg) < > WCI - Wind Chill Index < > VSB - VISIBILITY IN MILES < > HX - HEAT INDEX < > TC - TEMPERATURE IN CELSIUS < > VRB - VARIABLE WIND DIRECTION < > < >>>>>>>>>>>>>>>>>>>>>>>>>>>> KEY <<<<<<<<<<<<<<<<<<<<<<<<<<<

USA.gov is the U.S. government's official web portal to all federal, state and local government web resources and services.